South Haven, MI

10:59 AM EST on December 17, 2017 (GMT -0500)
South Haven

Weather History for KLWA - April, 2014

Change the Weather History Date:

Saturday, April 19, 2014

  Actual Average (KBEH) Record (KBEH)
Temperature  
Mean Temperature 46 °F -  
Max Temperature 63 °F 60 °F 84 °F (1985)
Min Temperature 30 °F 39 °F 18 °F (1988)
Degree Days  
Heating Degree Days 18    
Moisture  
Dew Point 30 °F    
Average Humidity 54    
Maximum Humidity 89    
Minimum Humidity 27    
Precipitation  
Precipitation 0.00 in - - ()
Sea Level Pressure  
Sea Level Pressure 30.34 in    
Wind  
Wind Speed 5 mph (ESE)    
Max Wind Speed 16 mph    
Max Gust Speed 20 mph    
Visibility 10 miles    
Events      
Averages and records for this station are not official NWS values.
T = Trace of Precipitation, MM = Missing Value Source: NWS Daily Summary

Daily Weather History Graph

Daily Weather History Graph

Search for Another Location

Airport or City:

Trip Planner

Search our weather history database for the weather conditions in past years. The results will help you decide how hot, cold, wet, or windy it might be!

Date:

Astronomy

Apr. 19, 2014 Rise Set
Actual Time 6:57 AM EDT 8:31 PM EDT
Civil Twilight 6:28 AM EDT 9:00 PM EDT
Nautical Twilight 5:52 AM EDT 9:36 PM EDT
Astronomical Twilight 5:14 AM EDT 10:14 PM EDT
Moon 12:17 AM EDT (4/19) 10:13 AM EDT (4/19)
Length of Visible Light 14h 32m
Length of Day
13h 33m
Waning Gibbous, 79% of the Moon is Illuminated
Apr 19
Waning Gibbous
Apr 22
Last Quarter
Apr 29
New
May 6
First Quarter
May 14
Full

Hourly Weather History & Observations

Time (EDT) Temp. Windchill Dew Point Humidity Pressure Visibility Wind Dir Wind Speed Gust Speed Precip Events Conditions
12:15 AM 33.8 °F - 28.0 °F 79% 30.35 in 10.0 mi Calm Calm - N/A   Clear
12:36 AM 33.1 °F - 28.4 °F 83% 30.35 in 10.0 mi Calm Calm - N/A   Clear
12:56 AM 32.0 °F - 27.9 °F 85% 30.36 in 10.0 mi Calm Calm - N/A   Clear
1:15 AM 31.6 °F - 27.7 °F 85% 30.36 in 10.0 mi Calm Calm - N/A   Clear
1:36 AM 31.3 °F - 28.2 °F 88% 30.37 in 10.0 mi Calm Calm - N/A   Clear
1:56 AM 30.9 °F 27.5 °F 28.0 °F 89% 30.36 in 10.0 mi NE 3.5 mph - N/A   Clear
2:16 AM 32.0 °F 27.5 °F 27.9 °F 85% 30.37 in 10.0 mi ENE 4.6 mph - N/A   Clear
2:36 AM 34.7 °F 30.6 °F 28.4 °F 78% 30.36 in 10.0 mi ENE 4.6 mph - N/A   Clear
2:55 AM 34.7 °F 30.6 °F 28.2 °F 77% 30.36 in 10.0 mi ENE 4.6 mph - N/A   Clear
3:16 AM 34.7 °F 29.6 °F 28.2 °F 77% 30.36 in 10.0 mi ENE 5.8 mph - N/A   Clear
3:36 AM 34.7 °F 31.8 °F 28.0 °F 77% 30.37 in 10.0 mi ENE 3.5 mph - N/A   Clear
3:55 AM 34.7 °F 30.6 °F 27.9 °F 76% 30.37 in 10.0 mi ENE 4.6 mph - N/A   Clear
4:16 AM 34.7 °F 29.6 °F 27.9 °F 76% 30.36 in 10.0 mi ENE 5.8 mph - N/A   Clear
4:36 AM 34.7 °F 29.6 °F 27.7 °F 76% 30.36 in 10.0 mi ENE 5.8 mph - N/A   Clear
4:56 AM 34.9 °F 29.0 °F 27.9 °F 76% 30.36 in 10.0 mi ENE 6.9 mph - N/A   Clear
5:16 AM 35.1 °F 29.3 °F 28.0 °F 76% 30.37 in 10.0 mi ENE 6.9 mph - N/A   Clear
5:36 AM 34.9 °F 29.9 °F 28.4 °F 77% 30.37 in 10.0 mi ENE 5.8 mph - N/A   Clear
5:56 AM 34.9 °F 29.0 °F 28.8 °F 78% 30.37 in 10.0 mi ENE 6.9 mph - N/A   Clear
6:16 AM 34.7 °F 28.8 °F 29.1 °F 80% 30.37 in 10.0 mi East 6.9 mph - N/A   Clear
6:35 AM 34.5 °F 28.6 °F 29.3 °F 81% 30.38 in 10.0 mi East 6.9 mph - N/A   Clear
6:56 AM 34.2 °F 29.0 °F 29.8 °F 84% 30.39 in 10.0 mi ENE 5.8 mph - N/A   Clear
7:16 AM 34.2 °F 29.0 °F 30.2 °F 85% 30.40 in 10.0 mi East 5.8 mph - N/A   Clear
7:36 AM 34.7 °F 28.8 °F 30.7 °F 85% 30.41 in 10.0 mi East 6.9 mph - N/A   Clear
7:56 AM 35.6 °F 28.6 °F 31.3 °F 84% 30.41 in 10.0 mi East 9.2 mph - N/A   Clear
8:15 AM 36.9 °F 29.6 °F 31.8 °F 82% 30.41 in 10.0 mi East 10.4 mph 17.3 mph N/A   Clear
8:36 AM 37.9 °F 30.0 °F 31.6 °F 78% 30.42 in 10.0 mi East 12.7 mph 18.4 mph N/A   Clear
8:56 AM 39.4 °F 32.3 °F 31.8 °F 74% 30.42 in 10.0 mi East 11.5 mph 18.4 mph N/A   Clear
9:15 AM 40.5 °F 33.6 °F 31.8 °F 71% 30.41 in 10.0 mi ESE 11.5 mph - N/A   Clear
9:36 AM 41.9 °F 34.0 °F 31.8 °F 67% 30.41 in 10.0 mi East 16.1 mph 19.6 mph N/A   Clear
9:56 AM 43.3 °F 36.5 °F 32.0 °F 64% 30.41 in 10.0 mi East 13.8 mph - N/A   Clear
10:16 AM 45.1 °F 39.9 °F 32.2 °F 60% 30.42 in 10.0 mi East 10.4 mph - N/A   Clear
10:36 AM 46.2 °F 40.5 °F 32.0 °F 58% 30.42 in 10.0 mi ESE 12.7 mph 18.4 mph N/A   Clear
10:55 AM 48.0 °F - 32.4 °F 55% 30.41 in 10.0 mi ESE 12.7 mph 17.3 mph N/A   Clear
11:16 AM 49.5 °F - 32.7 °F 53% 30.40 in 10.0 mi East 9.2 mph - N/A   Clear
11:36 AM 51.1 °F - 33.1 °F 50% 30.39 in 10.0 mi ESE 10.4 mph - N/A   Clear
11:55 AM 52.5 °F - 33.4 °F 48% 30.39 in 10.0 mi East 9.2 mph - N/A   Clear
12:16 PM 54.0 °F - 33.6 °F 46% 30.38 in 10.0 mi SE 5.8 mph - N/A   Clear
12:36 PM 54.9 °F - 33.1 °F 44% 30.38 in 10.0 mi SE 9.2 mph - N/A   Clear
12:56 PM 56.1 °F - 33.1 °F 42% 30.37 in 10.0 mi ESE 9.2 mph - N/A   Clear
1:16 PM 57.0 °F - 33.1 °F 40% 30.37 in 10.0 mi ESE 11.5 mph 18.4 mph N/A   Clear
1:35 PM 57.7 °F - 32.4 °F 38% 30.36 in 10.0 mi SE 11.5 mph 16.1 mph N/A   Clear
1:56 PM 59.2 °F - 31.6 °F 35% 30.35 in 10.0 mi SE 10.4 mph 16.1 mph N/A   Clear
2:16 PM 59.5 °F - 30.9 °F 34% 30.34 in 10.0 mi SE 10.4 mph 18.4 mph N/A   Clear
2:35 PM 61.2 °F - 30.4 °F 31% 30.33 in 10.0 mi SE 9.2 mph 16.1 mph N/A   Clear
2:56 PM 61.3 °F - 30.6 °F 31% 30.33 in 10.0 mi SE 9.2 mph 16.1 mph N/A   Clear
3:15 PM 61.9 °F - 30.2 °F 30% 30.32 in 10.0 mi ESE 10.4 mph 16.1 mph N/A   Clear
3:36 PM 62.4 °F - 30.4 °F 30% 30.32 in 10.0 mi SSE 8.1 mph 16.1 mph N/A   Clear
3:56 PM 63.3 °F - 30.0 °F 29% 30.31 in 10.0 mi ESE 9.2 mph 17.3 mph N/A   Clear
4:15 PM 62.8 °F - 29.3 °F 28% 30.30 in 10.0 mi SSE 6.9 mph 17.3 mph N/A   Clear
4:36 PM 63.7 °F - 30.2 °F 28% 30.29 in 10.0 mi ESE 9.2 mph - N/A   Clear
4:56 PM 63.9 °F - 30.7 °F 29% 30.28 in 10.0 mi South 5.8 mph - N/A   Clear
5:16 PM 63.9 °F - 29.7 °F 28% 30.28 in 10.0 mi SSE 8.1 mph - N/A   Clear
5:36 PM 63.5 °F - 30.2 °F 29% 30.28 in 10.0 mi SSE 9.2 mph - N/A   Clear
5:55 PM 63.3 °F - 28.9 °F 27% 30.27 in 10.0 mi SSE 3.5 mph - N/A   Clear
6:16 PM 63.3 °F - 28.6 °F 27% 30.27 in 10.0 mi SE 5.8 mph - N/A   Clear
6:36 PM 63.7 °F - 29.7 °F 28% 30.27 in 10.0 mi SSE 6.9 mph - N/A   Clear
6:55 PM 63.1 °F - 29.1 °F 28% 30.27 in 10.0 mi SSE 5.8 mph - N/A   Clear
7:16 PM 62.8 °F - 28.9 °F 28% 30.26 in 10.0 mi SE 5.8 mph - N/A   Clear
7:36 PM 61.5 °F - 29.1 °F 29% 30.26 in 10.0 mi SE 3.5 mph - N/A   Clear
7:56 PM 60.4 °F - 29.3 °F 31% 30.26 in 10.0 mi SE 5.8 mph - N/A   Clear
8:16 PM 59.0 °F - 29.5 °F 33% 30.25 in 10.0 mi SE 4.6 mph - N/A   Clear
8:35 PM 57.9 °F - 29.3 °F 34% 30.26 in 10.0 mi SE 3.5 mph - N/A   Clear
8:56 PM 57.4 °F - 28.2 °F 33% 30.27 in 10.0 mi SE 3.5 mph - N/A   Clear
9:16 PM 56.7 °F - 28.2 °F 34% 30.28 in 10.0 mi SE 3.5 mph - N/A   Clear
9:35 PM 55.6 °F - 28.9 °F 36% 30.28 in 10.0 mi SE 3.5 mph - N/A   Clear
9:56 PM 54.5 °F - 29.7 °F 39% 30.30 in 10.0 mi ESE 5.8 mph - N/A   Clear
10:15 PM 54.0 °F - 29.5 °F 39% 30.30 in 10.0 mi SE 8.1 mph - N/A   Clear
10:36 PM 53.6 °F - 29.3 °F 39% 30.30 in 10.0 mi SSE 5.8 mph - N/A   Clear
10:56 PM 52.7 °F - 29.8 °F 42% 30.30 in 10.0 mi SE 8.1 mph - N/A   Clear
11:15 PM 52.7 °F - 28.2 °F 39% 30.30 in 10.0 mi SSE 9.2 mph - N/A   Clear
11:36 PM 52.0 °F - 26.6 °F 37% 30.30 in 10.0 mi SE 8.1 mph - N/A   Clear
11:55 PM 51.1 °F - 26.8 °F 39% 30.30 in 10.0 mi SE 6.9 mph - N/A   Clear